Location: Warszawa
(52.2500°N, 21.0000°E)
Time: 21:45:14
(UTC+02:00)

AO-91 - Pass Details

Date: 26 April 2024
Orbit: 441 x 737 km, 97.6° (Epoch: 20 May)

Event Time Altitude Azimuth Distance (km) Brightness Sun altitude
Rises 21:11:03 0° 32° (NNE) 2,448 ? -10.8°
Reaches altitude 10° 21:14:08 10° 65° (ENE) 1,585 ? -11.2°
Maximum altitude 21:15:33 12° 90° (E) 1,466 ? -11.3°
Enters shadow 21:15:43 12° 93° (E) 1,469 ? -11.3°
